Weather reports worldwide

Advertisment
Winfield/Arkansas City, ks, United States of America (2074083): temperature & dewpoint: 07.12.2019 20:00:00 - 13.12.2019 20:00:00 (CST)Winfield/Arkansas City, ks, United States of America (2074083): wind speed & gusts: 07.12.2019 20:00:00 - 13.12.2019 20:00:00 (CST)Winfield/Arkansas City, ks, United States of America (2074083): wind direction: 07.12.2019 20:00:00 - 13.12.2019 20:00:00 (CST)Winfield/Arkansas City, ks, United States of America (2074083): reduced air pressure: 07.12.2019 20:00:00 - 13.12.2019 20:00:00 (CST)Winfield/Arkansas City, ks, United States of America (2074083): visibility: 07.12.2019 20:00:00 - 13.12.2019 20:00:00 (CST)
Date & Time tt [°C] td [°C] ff [km/h] ff [kn] fx [km/h] fx [kn] dd ppp [hPa] vv [km]
13.12.2019 20:00:00 8,9 1,1 13 7 - - WSW 1010,9 16
13.12.2019 19:00:00 7,2 1,1 9 5 - - SW 1010,5 16
13.12.2019 18:00:00 8,3 1,7 9 5 - - WSW 1010,4 16
13.12.2019 17:00:00 11,7 2,2 9 5 - - WSW 1009,5 16
13.12.2019 16:00:00 13,9 2,2 13 7 - - WSW 1009,2 16
13.12.2019 15:00:00 14,4 2,8 9 5 - - SW 1009,0 16
13.12.2019 14:00:00 14,4 3,3 16 9 - - WSW 1009,5 16
13.12.2019 13:00:00 13,3 3,9 15 8 - - SSW 1010,4 16
13.12.2019 12:00:00 11,7 3,9 11 6 - - SW 1011,8 16
13.12.2019 11:00:00 9,4 3,3 9 5 - - W 1013,3 16
13.12.2019 10:00:00 7,2 2,8 9 5 - - S 1013,0 16
13.12.2019 09:00:00 2,8 0,6 5 3 - - SSE 1013,1 16
13.12.2019 08:00:00 1,7 0,0 0 0 - - N 1013,5 16
13.12.2019 07:00:00 2,8 0,6 5 3 - - SSE 1013,0 16
13.12.2019 06:00:00 2,8 0,0 5 3 - - SE 1013,0 16
13.12.2019 05:00:00 2,8 0,0 5 3 - - SSE 1013,1 16
13.12.2019 04:00:00 3,9 0,6 5 3 - - SE 1013,7 16
13.12.2019 03:00:00 2,2 -0,6 8 4 - - SSE 1014,3 16
13.12.2019 02:00:00 3,9 0,0 8 4 - - SE 1014,6 16
13.12.2019 01:00:00 5,0 0,6 5 3 - - SSE 1015,4 16
13.12.2019 00:00:00 6,1 1,1 11 6 - - SE 1015,5 16
12.12.2019 23:00:00 6,1 1,1 8 4 - - SSE 1016,6 16
12.12.2019 22:00:00 6,7 1,7 0 0 - - N 1017,0 16
12.12.2019 21:00:00 6,7 1,7 0 0 - - N 1017,0 16
12.12.2019 20:00:00 7,8 1,7 8 4 - - SE 1017,0 16
12.12.2019 19:00:00 7,2 1,1 5 3 - - S 1017,3 16
12.12.2019 18:00:00 6,7 0,6 8 4 - - SSW 1017,3 16
12.12.2019 17:00:00 10,0 1,7 13 7 - - SSW 1017,0 16
12.12.2019 16:00:00 11,1 1,7 15 8 - - SSW 1017,2 16
12.12.2019 15:00:00 11,1 1,1 18 10 - - SW 1017,7 16
12.12.2019 14:00:00 11,1 0,6 31 17 - - SSW 1017,8 16
12.12.2019 13:00:00 10,6 0,0 34 18 50 27 SSW 1018,5 16
12.12.2019 12:00:00 10,0 -0,6 39 21 55 30 SSW 1019,9 16
12.12.2019 11:00:00 8,3 -1,1 34 18 57 31 SSW 1021,3 16
12.12.2019 10:00:00 7,2 -1,1 41 22 57 31 SSW 1021,5 16
12.12.2019 09:00:00 5,6 -1,1 28 15 - - S 1021,5 16
12.12.2019 08:00:00 4,4 -0,6 28 15 - - S 1021,5 16
12.12.2019 07:00:00 3,9 -0,6 24 13 - - S 1022,2 16
12.12.2019 06:00:00 4,4 -0,6 29 16 50 27 S 1021,8 16
12.12.2019 05:00:00 4,4 -1,1 35 19 48 26 S 1021,5 16
12.12.2019 04:00:00 5,0 -1,1 29 16 - - S 1022,2 16
12.12.2019 03:00:00 5,0 -1,1 34 18 50 27 S 1022,7 16
12.12.2019 02:00:00 5,6 -1,7 28 15 54 29 S 1022,7 16
12.12.2019 01:00:00 6,1 -2,2 29 16 50 27 S 1022,7 16
12.12.2019 00:00:00 6,1 -1,7 37 20 59 32 S 1022,9 16
11.12.2019 23:00:00 6,1 -1,7 35 19 55 30 S 1023,5 16
11.12.2019 22:00:00 6,7 -2,2 31 17 - - S 1024,0 16
11.12.2019 21:00:00 6,7 -0,6 28 15 - - S 1024,7 16
11.12.2019 20:00:00 5,6 -1,1 22 12 - - SSE 1025,3 16
11.12.2019 19:00:00 5,0 -1,7 15 8 - - SSE 1026,1 16
11.12.2019 18:00:00 6,1 -1,7 15 8 - - SSE 1026,3 16
11.12.2019 17:00:00 8,9 -2,2 21 11 - - SSE 1026,7 16
11.12.2019 16:00:00 10,6 -2,8 22 12 - - S 1027,1 16
11.12.2019 15:00:00 10,6 -3,3 21 11 - - S 1027,5 16
11.12.2019 14:00:00 10,0 -4,4 18 10 - - S 1028,4 16
11.12.2019 13:00:00 9,4 -3,9 22 12 - - SSW 1029,5 16
11.12.2019 12:00:00 8,3 -3,3 21 11 - - SSW 1031,0 16
11.12.2019 11:00:00 6,1 -3,9 24 13 - - SSW 1032,0 16
11.12.2019 10:00:00 3,3 -3,9 16 9 - - SSW 1032,0 16
11.12.2019 09:00:00 -0,6 -5,0 13 7 - - S 1032,0 16
11.12.2019 08:00:00 -3,9 -7,8 8 4 - - SSE 1031,7 16
11.12.2019 07:00:00 -5,6 -8,9 8 4 - - S 1031,2 16
11.12.2019 06:00:00 -2,8 -8,3 5 3 - - SSE 1030,4 16
11.12.2019 05:00:00 -5,0 -8,9 9 5 - - SSW 1030,1 16
11.12.2019 04:00:00 -4,4 -8,9 5 3 - - SSW 1030,1 16
11.12.2019 03:00:00 -2,8 -8,3 5 3 - - S 1030,2 16
11.12.2019 02:00:00 -4,4 -8,3 5 3 - - S 1030,1 16
11.12.2019 01:00:00 -3,9 -7,2 13 7 - - S 1030,2 16
11.12.2019 00:00:00 -3,3 -7,2 9 5 - - SSE 1030,4 16
10.12.2019 23:00:00 -3,3 -7,2 8 4 - - SSE 1030,6 16
10.12.2019 22:00:00 -1,7 -6,7 8 4 - - SE 1030,5 16
10.12.2019 21:00:00 -3,3 -7,8 0 0 - - N 1031,0 16
10.12.2019 20:00:00 -2,8 -7,8 0 0 - - N 1031,1 16
10.12.2019 19:00:00 -1,7 -7,8 0 0 - - N 1030,8 16
10.12.2019 18:00:00 1,7 -6,7 0 0 - - N 1029,8 16
10.12.2019 17:00:00 4,4 -6,1 11 6 - - N 1029,3 16
10.12.2019 16:00:00 5,6 -6,1 13 7 - - N 1028,9 16
10.12.2019 15:00:00 7,2 -6,7 8 4 - - W 1027,9 16
10.12.2019 14:00:00 6,7 -6,7 11 6 - - NNW 1027,5 16
10.12.2019 13:00:00 7,2 -6,7 16 9 - - WNW 1027,7 16
10.12.2019 12:00:00 5,6 -8,3 9 5 - - WNW 1028,3 16
10.12.2019 11:00:00 3,3 -7,8 15 8 - - WSW 1028,5 16
10.12.2019 10:00:00 0,0 -6,7 5 3 - - SW 1028,4 16
10.12.2019 09:00:00 -5,0 -8,3 0 0 - - N 1027,2 16
10.12.2019 08:00:00 -6,1 -8,9 0 0 - - N 1026,6 16
10.12.2019 07:00:00 -7,2 -9,4 5 3 - - NNW 1026,2 16
10.12.2019 06:00:00 -6,7 -9,4 0 0 - - N 1025,2 16
10.12.2019 05:00:00 -6,7 -10,0 0 0 - - N 1024,4 16
10.12.2019 04:00:00 -7,2 -10,0 0 0 - - N 1025,0 16
10.12.2019 03:00:00 -6,1 -10,0 0 0 - - N 1025,3 16
10.12.2019 02:00:00 -6,7 -9,4 0 0 - - N 1024,8 16
10.12.2019 01:00:00 -7,2 -10,0 0 0 - - N 1024,3 16
10.12.2019 00:00:00 -6,1 -10,0 0 0 - - N 1024,7 16
09.12.2019 23:00:00 -5,6 -10,0 5 3 - - NNW 1024,5 16
09.12.2019 22:00:00 -2,8 -10,0 0 0 - - N 1024,1 16
09.12.2019 21:00:00 -3,3 -10,0 9 5 - - N 1023,5 16
09.12.2019 20:00:00 -1,7 -10,0 16 9 - - N 1022,5 16
09.12.2019 19:00:00 -1,7 -9,4 13 7 - - N 1021,2 16
09.12.2019 18:00:00 -1,1 -9,4 13 7 - - NNW 1020,4 16
09.12.2019 17:00:00 0,0 -10,0 29 16 - - N 1018,8 16
09.12.2019 16:00:00 1,1 -10,0 31 17 54 29 N 1017,8 16
09.12.2019 15:00:00 1,7 -8,3 34 18 54 29 NNW 1016,8 16
09.12.2019 14:00:00 2,8 -7,8 35 19 52 28 NNW 1015,9 16
09.12.2019 13:00:00 2,8 -5,6 29 16 59 32 N 1014,8 16
09.12.2019 12:00:00 1,7 -5,6 37 20 55 30 NNW 1014,2 16
09.12.2019 11:00:00 1,1 -5,0 39 21 68 37 N 1013,9 16
09.12.2019 10:00:00 1,7 -2,2 42 23 67 36 NNW 1012,0 16
09.12.2019 09:00:00 2,8 1,7 39 21 61 33 NNW 1009,1 16
09.12.2019 08:00:00 0,6 0,0 13 7 - - NNW 1006,2 8
09.12.2019 07:00:00 0,0 0,0 5 3 - - NNW 1004,8 4,8
09.12.2019 06:00:00 0,0 -0,6 11 6 - - NW 1003,0 1,2
09.12.2019 05:00:00 0,0 0,0 0 0 - - N 1002,6 0,4
09.12.2019 04:00:00 -1,1 -1,1 5 3 - - SW 1002,4 0,4
09.12.2019 03:00:00 -0,6 -0,6 5 3 - - N 1001,9 0,4
09.12.2019 02:00:00 -0,6 -1,1 8 4 - - NNW 1001,5 0,8
09.12.2019 01:00:00 2,2 1,7 0 0 - - N 1002,1 8
09.12.2019 00:00:00 2,2 1,7 0 0 - - N 1002,7 13
08.12.2019 23:00:00 4,4 2,8 5 3 - - E 1002,9 16
08.12.2019 22:00:00 2,2 1,1 9 5 - - NNW 1003,5 16
08.12.2019 21:00:00 5,0 3,9 0 0 - - N 1004,0 16
08.12.2019 20:00:00 6,7 4,4 0 0 - - N 1004,9 16
08.12.2019 19:00:00 9,4 5,6 0 0 - - N 1005,1 16
08.12.2019 18:00:00 10,0 5,6 5 3 - - N 1005,2 16
08.12.2019 17:00:00 11,1 6,1 8 4 - - SSW 1005,2 16
08.12.2019 16:00:00 12,8 6,1 13 7 - - SSW 1005,0 16
08.12.2019 15:00:00 12,2 6,1 9 5 - - SSW 1005,6 16
08.12.2019 14:00:00 12,2 6,7 16 9 - - SSW 1006,5 16
08.12.2019 13:00:00 11,7 6,7 15 8 - - SSW 1007,0 16
08.12.2019 12:00:00 11,1 6,1 15 8 - - S 1008,3 16
08.12.2019 11:00:00 10,6 6,7 15 8 - - SSW 1009,8 16
08.12.2019 10:00:00 8,9 6,7 15 8 - - S 1010,7 15
08.12.2019 09:00:00 5,6 4,4 5 3 - - SE 1010,6 10
08.12.2019 08:00:00 3,9 3,3 8 4 - - SE 1010,8 11
08.12.2019 07:00:00 4,4 3,3 9 5 - - SE 1011,3 16
08.12.2019 06:00:00 4,4 3,3 5 3 - - ESE 1011,5 16
08.12.2019 05:00:00 5,0 3,3 8 4 - - SE 1011,9 16
08.12.2019 04:00:00 5,6 2,8 15 8 - - SSE 1012,2 16
08.12.2019 03:00:00 6,1 2,8 11 6 - - SE 1013,4 16
08.12.2019 02:00:00 6,7 2,8 15 8 - - SSE 1013,9 16
08.12.2019 01:00:00 6,7 2,2 22 12 - - S 1014,6 16
08.12.2019 00:00:00 7,8 2,2 24 13 - - S 1015,6 16
07.12.2019 23:00:00 5,6 0,0 15 8 - - SSE 1016,7 16
07.12.2019 22:00:00 5,6 -1,7 18 10 - - SSE 1017,3 16
07.12.2019 21:00:00 6,7 -3,3 16 9 - - SSE 1018,0 16
07.12.2019 20:00:00 5,6 -3,3 11 6 - - SE 1018,5 16

tt = temperature
td = dewpoint
ff = wind speed
fx = gusts
dd = wind direction
ppp = reduced air pressure
vv = visibility

Next stations